User: anonymous   Login
Location: Unspecified
(0.0000°N, 0.0000°E)
Time: 15:20:40
(UTC+02:00)
Language:

NOSS 3-3 (A) - Orbit

View from above orbital plane
View from above orbital plane
View from above satellite
View from above satellite

Ground track
Ground track

The orbit data is extracted from the following two-line orbital elements,

1 28537U 05004A   15206.96971542 0.00000000  00000-0  00000-0 0    04
2 28537  63.4294 152.1847 0201000 358.4804   1.5196 13.40683985    07
Epoch (UTC): 25 July 2015 23:16:23
Eccentricity: 0.0201000
inclination: 63.4294°
perigee height: 956 km
apogee height: 1257 km
right ascension of ascending node: 152.1847°
argument of perigee: 358.4804°
revolutions per day: 13.40683985
mean anomaly at epoch: 1.5196°
orbit number at epoch: 0

The dashed part of the orbit path shows where the satellite is in the earth's shadow,  

DLR